[[{"header":{"parameterUnit":"m.s-1","parameterCategory":1,"la1":30.2991,"la2":30.254,"lo1":-89.0895,"lo2":-89.0444,"dy":0.0017,"dx":0.0017,"nx":28,"ny":28,"refTime":"2023-03-31T21:00:00:Z","depth":0,"parameterNumber":2,"parameterNumberName":"U-component_of_WINDS"},"data":[0,0,0,0,0,0,0,0,0,0,0,0,0,0,0,0,0,0,0,0,0,0,0,0,0,0,0,0,0,0,0,0,0,0,0,0,0,0,0,0,0,0,0,0,0,0,0,0,0,0,0,0,0,0,0,0,0,0,-2.004,-2.004,0,-2.0031,-2.0031,-2.0031,-2.0,-1.9999,-1.9998,-1.9998,-1.9989,-1.999,-1.999,0,0,0,0,0,0,0,0,0,0,0,0,0,-2.0029,-2.003,-2.004,-2.004,-2.004,-2.0031,-2.0031,-2.0031,-2.0,-1.9999,-1.9998,-1.9997,-1.9989,-1.999,-1.999,0,0,0,0,0,0,0,0,0,0,0,0,0,-2.0029,-2.003,-2.004,-2.0023,-2.0022,-2.0031,-2.0031,-2.0031,-2.0,-1.9999,-1.9998,-1.9997,-1.9989,-1.999,-1.999,-2.0016,0,0,-1.9992,-1.9993,0,0,0,0,0,0,0,0,-2.0029,-2.0029,-2.0026,-2.0024,-2.0023,-2.0015,-2.0024,-2.0026,-2.0,-2.0008,-1.9998,-1.9996,-1.9999,-1.9999,-1.9999,-2.0015,-2.0015,-1.9992,-1.9993,-1.9993,-1.9993,0,0,0,0,0,0,0,-2.0029,-2.0029,-2.0036,-2.0026,-2.0024,-2.0016,-2.0015,-2.0024,-2.001,-2.0008,-2.0005,-2.0005,-1.9998,-1.9999,-1.9999,-2.0015,-1.9992,-1.9993,-1.9993,-1.9994,-2.005,-2.0051,0,0,0,0,0,0,-2.0031,-2.003,-2.0037,-2.0036,-2.0023,-2.0017,-2.0016,-2.0019,-2.001,-2.0007,-2.0006,-2.0003,-1.9998,-1.9998,-1.9999,-2.0026,-1.9993,-1.9994,-1.9994,-2.0049,-2.005,-2.0051,0,0,0,0,0,0,-2.0031,-2.0032,-2.0037,-2.0032,-2.0032,-2.0018,-2.0022,-2.0019,-2.002,-2.0008,-2.0005,-2.0009,-1.9997,-1.9998,-2.0011,-2.0026,-1.9994,-1.9995,-2.0047,-2.0049,-2.0051,-2.0083,0,0,0,0,0,0,-2.0031,-2.0032,-2.0042,-2.0033,-2.0033,-2.005,-2.0023,-2.002,-2.0021,-2.0018,-2.0011,-2.0008,-1.9997,-2.0011,-2.0012,-2.0026,-1.9995,-2.0046,-2.0048,-2.005,-2.008,-2.0085,-2.009,0,0,0,0,0,-2.0031,-2.0052,-2.0043,-2.0044,-2.0044,-2.0051,-2.0051,-2.0037,-2.0023,-2.0032,-2.0024,-2.0009,-2.0024,-2.0012,-2.0014,-2.0028,-2.0045,-2.0047,-2.005,-2.0078,-2.0084,-2.0089,0,0,0,0,0,0,-2.0063,-2.005,-2.004,-2.0058,-2.0056,-2.0046,-2.0057,-2.0044,-2.0045,-2.0042,-2.0025,-2.0023,-2.0039,-2.0035,-2.0022,-2.0051,-2.0032,-2.0035,-2.0053,-2.0059,-2.0063,-2.0063,-1.9996,0,0,0,0,0,-2.0073,-2.0079,-2.0067,-2.0085,-2.0084,-2.0071,-2.0073,-2.0062,-2.0059,-2.0058,-2.0051,-2.0049,-2.0053,-2.0056,-2.0059,-2.008,-2.0077,-2.0091,-2.0095,-2.0099,-2.0101,-2.0111,-2.0116,-2.0059,-2.0059,-2.0059,0,0,-2.0092,-2.0086,-2.0091,-2.0091,-2.0088,-2.0095,-2.007,-2.0079,-2.0083,-2.0059,-2.0071,-2.0066,-2.0062,-2.0079,-2.0087,-2.0077,-2.0117,-2.0102,-2.0106,-2.0106,-2.0114,-2.0119,-2.0124,-2.0061,-2.0061,-2.006,0,0,-2.013,-2.0126,-2.014,-2.0137,-2.0132,-2.0123,-2.0127,-2.0118,-2.0114,-2.0125,-2.0107,-2.0113,-2.0121,-2.0118,-2.0118,-2.0155,-2.014,-2.0157,-2.018,-2.019,-2.0194,-2.0198,-2.021,-2.0214,-2.0159,-2.0159,-2.0159,0,-2.0154,-2.0163,-2.0148,-2.0158,-2.0158,-2.0137,-2.015,-2.0148,-2.0145,-2.0145,-2.0134,-2.0143,-2.0139,-2.0154,-2.0163,-2.0165,-2.0167,-2.0157,-2.0195,-2.0198,-2.0202,-2.0213,-2.0217,-2.0161,-2.0161,-2.0161,-2.0161,0,-2.0193,-2.02,-2.0211,-2.0208,-2.021,-2.0221,-2.0207,-2.0211,-2.0201,-2.0193,-2.0204,-2.0199,-2.02,-2.0203,-2.0194,-2.0217,-2.0211,-2.0198,-2.0178,-2.0209,-2.0219,-2.0223,-2.0164,-2.0163,-2.0163,-2.0162,0,0,-2.025,-2.0238,-2.0243,-2.024,-2.0234,-2.0238,-2.0249,-2.025,-2.0252,-2.0251,-2.0259,-2.0266,-2.0253,-2.0253,-2.0243,-2.0251,-2.0279,-2.0237,-2.0236,-2.0243,-2.0303,-2.0312,-2.0317,-2.027,-2.0271,-2.0271,-2.0303,0,-2.0285,-2.0301,-2.0288,-2.0306,-2.0312,-2.0292,-2.03,-2.0297,-2.029,-2.0294,-2.0286,-2.0291,-2.0275,-2.0274,-2.0282,-2.0274,-2.029,-2.0272,-2.0276,-2.0276,-2.0276,-2.0323,-2.0332,-2.0362,-2.0307,-2.0308,-2.0308,0,-2.0328,-2.0327,-2.0346,-2.0337,-2.0339,-2.0347,-2.0346,-2.035,-2.0346,-2.034,-2.034,-2.0327,-2.0336,-2.0318,-2.0329,-2.0317,-2.0318,-2.0314,-2.0315,-2.0314,-2.0293,-2.0321,-2.0372,-2.0375,-2.0314,-2.0314,-2.0313,0,-2.0366,-2.037,-2.0382,-2.0381,-2.0371,-2.0377,-2.0373,-2.0368,-2.0369,-2.0369,-2.0369,-2.037,-2.037,-2.0371,-2.0359,-2.0347,-2.0371,-2.0352,-2.0366,-2.0366,-2.0371,-2.037,-2.0421,-2.0375,-2.0375,-2.0375,-2.0374,0,-2.0405,-2.0417,-2.0398,-2.0405,-2.0418,-2.0403,-2.0415,-2.041,-2.0405,-2.041,-2.0394,-2.0399,-2.0383,-2.0387,-2.0377,-2.0388,-2.0389,-2.0384,-2.038,-2.0384,-2.0384,-2.0383,-2.038,-2.0376,-2.0375,-2.0375,-2.0375,0,-2.0449,-2.0437,-2.0448,-2.0438,-2.0435,-2.0445,-2.0436,-2.0442,-2.0434,-2.0441,-2.0441,-2.0429,-2.0432,-2.042,-2.0422,-2.0416,-2.043,-2.0425,-2.0431,-2.0429,-2.0443,-2.0441,-2.0493,-2.0498,-2.045,-2.0451,-2.0451,0,-2.0474,-2.0482,-2.0473,-2.0475,-2.0471,-2.0475,-2.0476,-2.0462,-2.0463,-2.0459,-2.0465,-2.0467,-2.0467,-2.0473,-2.0464,-2.0465,-2.0459,-2.0477,-2.0459,-2.0461,-2.0457,-2.0456,-2.0456,-2.048,-2.0481,-2.0481,-2.0482,0,-2.0519,-2.0512,-2.0514,-2.0513,-2.0514,-2.0513,-2.0511,-2.0514,-2.0498,-2.0501,-2.0504,-2.0504,-2.0505,-2.0507,-2.0506,-2.0502,-2.0489,-2.0488,-2.0491,-2.0493,-2.0496,-2.0493,-2.044,-2.0486,-2.0486,-2.0485,-2.0485,-2.0485,-2.0552,-2.0559,-2.0552,-2.0554,-2.0551,-2.055,-2.0554,-2.0546,-2.0548,-2.0548,-2.0539,-2.0544,-2.0539,-2.0536,-2.0533,-2.0536,-2.0528,-2.0533,-2.0533,-2.0534,-2.0536,-2.0497,-2.0536,-2.0536,-2.0536,-2.0536,-2.0536,0,-2.0595,-2.059,-2.0592,-2.0589,-2.0591,-2.0579,-2.0575,-2.0577,-2.0581,-2.0578,-2.0578,-2.0581,-2.0583,-2.0574,-2.0574,-2.0578,-2.0572,-2.0578,-2.0577,-2.0576,-2.0544,-2.0541,-2.0583,-2.0583,-2.0583,-2.0583,-2.0583,-2.0583,-2.0617,-2.0626,-2.0619,-2.0627,-2.0622,-2.0625,-2.0624,-2.0622,-2.0619,-2.0623,-2.0624,-2.0618,-2.0612,-2.0612,-2.0612,-2.061,-2.061,-2.0618,-2.0613,-2.0583,-2.0579,-2.0574,-2.0571,-2.0619,-2.0619,-2.0645,-2.0645,-2.0645]},{"header":{"parameterUnit":"m.s-1","parameterCategory":1,"la1":30.2991,"la2":30.254,"lo1":-89.0895,"lo2":-89.0444,"dy":0.0017,"dx":0.0017,"nx":28,"ny":28,"refTime":"2023-03-31T21:00:00:Z","depth":0,"parameterNumber":3,"parameterNumberName":"V-component_of_WINDS"},"data":[0,0,0,0,0,0,0,0,0,0,0,0,0,0,0,0,0,0,0,0,0,0,0,0,0,0,0,0,0,0,0,0,0,0,0,0,0,0,0,0,0,0,0,0,0,0,0,0,0,0,0,0,0,0,0,0,0,0,3.7956,3.7956,0,3.7906,3.7905,3.7905,3.7893,3.7893,3.7893,3.7894,3.7836,3.7834,3.7832,0,0,0,0,0,0,0,0,0,0,0,0,0,3.8039,3.8037,3.7957,3.7956,3.7955,3.7906,3.7905,3.7905,3.7892,3.7893,3.7893,3.7894,3.7837,3.7834,3.7832,0,0,0,0,0,0,0,0,0,0,0,0,0,3.7997,3.8037,3.7957,3.7943,3.7942,3.7906,3.7905,3.7904,3.7892,3.7893,3.7893,3.7894,3.7837,3.7835,3.7832,3.7804,0,0,3.7823,3.7822,0,0,0,0,0,0,0,0,3.7999,3.7994,3.7946,3.7944,3.7942,3.7906,3.7913,3.787,3.7892,3.7911,3.7894,3.7894,3.7858,3.7854,3.7843,3.7801,3.7799,3.7823,3.7821,3.782,3.7819,0,0,0,0,0,0,0,3.8002,3.7996,3.7936,3.7945,3.7943,3.7939,3.7933,3.7905,3.7882,3.7909,3.7908,3.7903,3.7858,3.7846,3.7842,3.7798,3.7823,3.7821,3.7819,3.7818,3.7733,3.7732,0,0,0,0,0,0,3.8008,3.7998,3.7938,3.7935,3.7973,3.7937,3.7931,3.7917,3.7882,3.7878,3.7902,3.7902,3.785,3.7845,3.784,3.7806,3.782,3.7817,3.7816,3.7733,3.7732,3.7732,0,0,0,0,0,0,3.801,3.8003,3.794,3.7966,3.7958,3.7935,3.792,3.7916,3.7904,3.7877,3.7873,3.7895,3.7851,3.7844,3.7814,3.7804,3.7816,3.7814,3.7734,3.7733,3.7732,3.7738,0,0,0,0,0,0,3.8012,3.8003,3.7993,3.7966,3.7957,3.7916,3.7919,3.7914,3.79,3.79,3.7869,3.7864,3.785,3.7818,3.7811,3.78,3.7811,3.7735,3.7733,3.7732,3.7739,3.7738,3.7737,0,0,0,0,0,3.8015,3.7995,3.7993,3.7986,3.7944,3.7916,3.791,3.7896,3.7899,3.7889,3.7872,3.7865,3.7806,3.7815,3.7807,3.7795,3.7735,3.7734,3.7732,3.7739,3.7738,3.7737,0,0,0,0,0,0,3.8019,3.7991,3.7988,3.796,3.7941,3.7914,3.79,3.7895,3.7872,3.7872,3.7854,3.7847,3.7819,3.7804,3.7814,3.7768,3.7771,3.7768,3.7779,3.7777,3.7776,3.778,3.7809,0,0,0,0,0,3.8017,3.7998,3.7974,3.7951,3.7942,3.7923,3.791,3.7901,3.7879,3.787,3.7851,3.7829,3.7806,3.779,3.7767,3.7737,3.773,3.7725,3.7724,3.7723,3.7721,3.7705,3.7702,3.7727,3.7727,3.7727,0,0,3.8012,3.7994,3.7983,3.7951,3.7935,3.7915,3.7916,3.7893,3.7878,3.7866,3.7838,3.7823,3.7797,3.7768,3.7754,3.7754,3.7713,3.7721,3.7721,3.7719,3.7703,3.7701,3.7699,3.7727,3.7727,3.7727,0,0,3.7992,3.7977,3.7957,3.7942,3.7919,3.7907,3.7902,3.7877,3.7867,3.7839,3.7831,3.7811,3.7771,3.7753,3.7739,3.7716,3.7709,3.7709,3.7703,3.7688,3.7686,3.7684,3.7677,3.7674,3.7706,3.7706,3.7706,0,3.7988,3.7959,3.7947,3.7926,3.7913,3.7904,3.7884,3.7869,3.7838,3.7829,3.7831,3.7782,3.7763,3.7731,3.7725,3.7714,3.7708,3.7712,3.7688,3.7686,3.7684,3.7676,3.7673,3.7706,3.7706,3.7706,3.7706,0,3.7955,3.7935,3.7921,3.7896,3.7881,3.786,3.7844,3.783,3.7823,3.7811,3.7783,3.7761,3.7734,3.7726,3.7717,3.7692,3.7693,3.7691,3.7694,3.7682,3.7674,3.7671,3.7707,3.7707,3.7707,3.7706,0,0,3.7935,3.7905,3.79,3.789,3.7865,3.7848,3.7827,3.7804,3.7792,3.7772,3.7754,3.7722,3.7721,3.7705,3.7694,3.7681,3.7666,3.7681,3.768,3.768,3.7637,3.7639,3.7636,3.7662,3.7661,3.766,3.764,0,3.7913,3.7878,3.7868,3.7837,3.7819,3.7812,3.7794,3.7776,3.7764,3.7746,3.7731,3.7709,3.7709,3.77,3.7687,3.7671,3.7657,3.7672,3.7644,3.7643,3.7651,3.7632,3.7634,3.7615,3.7637,3.7636,3.7636,0,3.7882,3.7865,3.7834,3.7813,3.7805,3.7789,3.7768,3.7751,3.7731,3.7723,3.7707,3.7698,3.7676,3.768,3.7649,3.7659,3.7647,3.7638,3.7637,3.7633,3.7639,3.7629,3.7609,3.7606,3.7631,3.7632,3.7632,0,3.7872,3.784,3.7818,3.7809,3.7784,3.7774,3.7762,3.7743,3.773,3.7711,3.7702,3.768,3.7667,3.7649,3.7635,3.7639,3.7605,3.7608,3.7598,3.7598,3.759,3.7591,3.7568,3.7582,3.7582,3.7582,3.7582,0,3.7849,3.783,3.7814,3.78,3.7779,3.7768,3.7747,3.7735,3.7718,3.7701,3.7693,3.7677,3.7659,3.764,3.7628,3.7605,3.7599,3.7592,3.7589,3.7593,3.7594,3.7584,3.7585,3.7581,3.7582,3.7582,3.7582,0,3.7834,3.7822,3.7798,3.7778,3.7772,3.7758,3.774,3.7726,3.7715,3.7694,3.7688,3.7669,3.7648,3.7632,3.7602,3.7595,3.757,3.7566,3.7577,3.7576,3.7567,3.7568,3.7537,3.7533,3.755,3.7549,3.7549,0,3.782,3.7806,3.7785,3.7775,3.7765,3.7747,3.7735,3.7723,3.771,3.7688,3.7676,3.7655,3.7637,3.7602,3.7585,3.7563,3.7559,3.755,3.7556,3.7561,3.756,3.7561,3.756,3.7549,3.7549,3.7549,3.7549,0,3.7797,3.7793,3.7776,3.7759,3.7745,3.773,3.7714,3.7706,3.7691,3.7677,3.7656,3.7642,3.7614,3.7593,3.757,3.7556,3.755,3.7548,3.7544,3.7548,3.7555,3.7552,3.7576,3.7548,3.7548,3.7548,3.7548,3.7548,3.7782,3.777,3.7755,3.7738,3.7725,3.7712,3.7699,3.7687,3.767,3.7648,3.7641,3.762,3.7601,3.757,3.7557,3.7539,3.7539,3.7534,3.7532,3.7531,3.7532,3.7559,3.7534,3.7534,3.7534,3.7534,3.7534,0,3.776,3.775,3.7734,3.7715,3.7701,3.7699,3.7682,3.7671,3.7653,3.7637,3.762,3.7597,3.7576,3.7559,3.7537,3.7526,3.7523,3.7521,3.7522,3.7519,3.7533,3.7538,3.7525,3.7525,3.7525,3.7525,3.7525,3.7525,3.7746,3.7727,3.7721,3.7695,3.7685,3.7666,3.7657,3.7644,3.7631,3.7606,3.7591,3.758,3.7563,3.7541,3.7522,3.7518,3.751,3.7509,3.7504,3.7517,3.7518,3.7519,3.7524,3.7508,3.7508,3.7492,3.7492,3.7492]}]]